Regional Weather Roundup
Issued by NWS Newport/Morehead, NC

Current Version | Previous Version | Graphics & Text | Print | Product List | Glossary Off
Versions: 1 2 3 4 5 6 7 8 9 10 11 12 13 14 15 16 17 18 19 20 21 22 23 24 25 26 27 28 29 30 31 32 33 34 35 36 37 38 39 40 41 42 43 44 45 46 47 48 49 50

000
ASUS42 KMHX 051312
RWRMHX
WEATHER ROUNDUP FOR EASTERN NORTH CAROLINA
NATIONAL WEATHER SERVICE NEWPORT/MOREHEAD CITY NC
800 AM EST THU MAR 05 2015

NOTE: "FAIR" INDICATES FEW OR NO CLOUDS BELOW 12,000 FEET
WITH NO SIGNIFICANT WEATHER AND/OR OBSTRUCTIONS TO VISIBILITY

NCZ015>017-031-032-045>047-102-103-051400-
NORTH COAST

CITY           SKY/WX    TMP DP  RH WIND       PRES   REMARKS
EDENTON        CLOUDY    49  47  94 N12       29.97R
ELIZABETH CITY CLOUDY    45  43  93 NE15      29.99R
KITTY HAWK     FOG       41  41 100 N13G21    29.97R VSB 1
MANTEO         CLOUDY    45  43  93 N14       29.98R FOG

$$

NCZ045>047-081-094-103-104-051400-
CENTRAL COAST

CITY           SKY/WX    TMP DP  RH WIND       PRES   REMARKS
FRISCO         FOG       60  60 100 SW18      29.98R VSB 1/4
SWANQUARTER      N/A     59 N/A N/A SW15G22   29.91R

$$

NCZ095-097-098-100-101-051400-
SOUTHERN COAST

CITY           SKY/WX    TMP DP  RH WIND       PRES   REMARKS
BEAUFORT       FOG       58  58 100 SW10      29.99R VSB 3/4
CEDAR ISLAND     N/A     64 N/A N/A SW14G25   30.00S
JACKSONVILLE   SUNNY     68  61  78 S12G20    29.95F
PINEY ISLAND     N/A    N/A N/A N/A MISG      29.97R
WILMINGTON     SUNNY     65  61  87 S15G23    29.97F


$$

NCZ011>013-027>030-043-044-078>080-089-090>093-098-051400-
COASTAL PLAIN

CITY           SKY/WX    TMP DP  RH WIND       PRES   REMARKS
AHOSKIE        RAIN      45  43  95 N13       29.98R
CLINTON        SUNNY     67  63  85 SW6       29.94R
ELIZABETHTOWN  SUNNY     66  62  85 SW10      29.95R
GOLDSBORO      SUNNY     67  67  99 SW12G18   29.90R
GREENVILLE     MOSUNNY   68  63  83 SW13      29.94R
HAVELOCK       MOSUNNY   66  61  84 SW17G28   29.97S
KENANSVILLE    SUNNY     65  61  86 SW5       29.95R
KINSTON        NOT AVBL
NEW BERN       SUNNY     67  61  81 SW10G18   29.95S
RICHLANDS      MOSUNNY   64  59  82 SW12G17   29.96S
ROCKY MOUNT    CLOUDY    64  61  90 S5        29.92R
WASHINGTON     MOSUNNY   67  62  82 SW7       29.93R
WHITEVILLE     SUNNY     64  60  87 S12       29.95S

$$

AMZ130-135-150-152-154-156-158-170-250-252-270-ANZ085-086-088-633-658-670-051400-
MARINE OBSERVATIONS

STATION/POSITION TIME  TEMP    WIND        PRES    WAVE   SWELL
                       AIR SEA DIR/SP/G            HT/PER HT/PER
                 (UTC) (F)     (DEG/KT/KT) (MB)    (FT/S) (FT/S)
CHESAPEAKE LIGHT 1200   38      30/ 23/ 24 1015.2
64 E VA BEACH    1250   49 51   10/ 19/ 23 1013.7    5/ 7   3/ 7
DUCK             1200      36  340/ 20/ 22 1013.4
2 E DUCK         1211      36                N/A     2/10
10 NE DUCK       1222      37                N/A     4/10
OREGON INLET     1200   51 50  200/ 16/ 20 1013.5
HATTERAS CG      1200   60 49  230/ 12/ 18 1014.8
CAPE LOOKOUT     1300   61     210/ 16/ 19 1015.4
BEAUFORT LAB     1200   58 47  220/  7/ 13 1014.0
27 SE WRIGHTSVLE NOT AVBL
5 SE WRIGHTSVLE  NOT AVBL
225 S CAPE HAT   1250   73 73  210/ 19/ 23 1020.7    6/10   3/10
41 SE CHARLESTON 1250   69 68  210/ 17/ 21 1016.6    6/ 7   3/ 8

$$



USA.gov is the U.S. government's official web portal to all federal, state and local government web resources and services.